Regional Weather Roundup
Issued by NWS

Home | Current Version | Previous Version | Graphics & Text | Print | Product List | Glossary On
Versions: 1 2 3 4 5 6 7 8 9 10 11 12 13 14 15 16 17 18 19 20 21 22 23 24 25 26 27 28 29 30 31 32 33 34 35 36 37 38 39 40 41 42 43 44 45 46 47 48 49 50
000
ASUS43 KIND 281109
RWRIN

WEATHER ROUNDUP FOR INDIANA
NATIONAL WEATHER SERVICE INDIANAPOLIS IN
600 AM EST FRI NOV 28 2014

NOTE: "FAIR" INDICATES FEW OR NO CLOUDS BELOW 12,000 FEET WITH NO
SIGNIFICANT WEATHER AND/OR OBSTRUCTIONS TO VISIBILITY.

* - STATION DOES NOT REPORT WEATHER SUCH AS PRECIPITATION OR FOG.

+ - STATION NOT QUALITY CONTROLLED BY THE NATIONAL WEATHER SERVICE.
    USE DATA WITH CAUTION...ESPECIALLY DEWPOINT AND RELATIVE
    HUMIDITY OBSERVATIONS.

INZ001>003-010>013-019-020-281200-
NORTHWEST INDIANA

CITY           SKY/WX    TMP DP  RH WIND       PRES   REMARKS
GARY /AIRPORT/ CLOUDY    23  12  63 CALM      30.35F
KNOX *+        CLOUDY    21  16  81 CALM      30.35F
LA PORTE +     CLOUDY    22  16  76 CALM      30.34F
MICHIGAN CITY+ CLOUDY    21  12  68 CALM      30.35F
MONTICELLO +   CLOUDY    20  18  89 CALM      30.36F
RENSSELAER +     N/A     21  21 100 SE3       30.36S
VALPARAISO     CLOUDY    19  14  81 S3        30.34F

$$

LMZ046-743>745-281200-
SOUTHERN LAKE MICHIGAN

STATION/POSITION TIME  TEMP WIND        PRES
                       AIR  DIR/SP/G
                 (UTC) (F)  (DEG/KT/KT) (MB)
MICHIGAN CITY    1100   21  170/  7/  8   N/A

$$

INZ004-005-014>016-021>024-281200-
NORTH CENTRAL INDIANA

CITY           SKY/WX    TMP DP  RH WIND       PRES   REMARKS
GOSHEN         CLOUDY    19  15  84 SW5       30.35R WCI  12
LOGANSPORT +   CLOUDY    21  18  86 SW3       30.37F
ROCHESTER +    CLOUDY    23  19  86 W3        30.37S
SOUTH BEND     CLOUDY    20  15  81 SW5       30.36S WCI  13
WARSAW +       CLOUDY    19  16  86 SW3       30.36S

$$

INZ006>009-017-018-025>027-281200-
NORTHEAST INDIANA

CITY           SKY/WX    TMP DP  RH WIND       PRES   REMARKS
ANGOLA *+      MOCLDY    18  16  93 SW3       30.34R
AUBURN +       PTCLDY    19  16  86 SW5       30.37R WCI  13
FORT WAYNE     CLOUDY    21  15  78 W6        30.38R WCI  13
HUNTINGTON +   CLOUDY    21  16  79 CALM      30.37R

$$

INZ028-029-035-036-043>045-051>053-281200-
WEST CENTRAL INDIANA

CITY           SKY/WX    TMP DP  RH WIND       PRES   REMARKS
GREENCASTLE +  CLOUDY    21  18  86 CALM      30.37F
LAFAYETTE      CLOUDY    19  16  88 CALM      30.37F
TERRE HAUTE    CLOUDY    21  15  78 S3        30.40S

$$

INZ030>032-037>040-046>048-054>057-064-065-281200-
CENTRAL INDIANA

CITY           SKY/WX    TMP DP  RH WIND       PRES   REMARKS
CP ATTERBURY + CLOUDY    25  19  80 SW3       30.40S
FRANKFORT +    MOCLDY    21  18  86 CALM      30.38F
INDIANAPOLIS   CLOUDY    21  17  84 SW5       30.37F WCI  15
-EAGLE CREEK   CLOUDY    21  18  88 CALM      30.38S
KOKOMO *+      MOCLDY    21  18  86 SW5       30.37S WCI  15
MARION +         N/A     21  18  88 W7        30.38S WCI  13
MT COMFORT *+  CLOUDY    23  18  80 SW3       30.39S
SHELBYVILLE    CLOUDY    25  20  81 W3        30.39S
ZIONSVILLE +   CLOUDY    22  18  83 CALM      30.38S

$$

INZ033-034-041-042-049-050-058-059-281200-
EAST CENTRAL INDIANA

CITY           SKY/WX    TMP DP  RH WIND       PRES   REMARKS
MUNCIE         PTCLDY    22  18  85 SW6       30.37S WCI  14

$$

INZ060-061-067>069-081>083-085>088-281200-
SOUTHWEST INDIANA

CITY           SKY/WX    TMP DP  RH WIND       PRES   REMARKS
EVANSVILLE     MOCLDY    26  21  81 CALM      30.42F
HUNTINGBURG *+ CLOUDY    25  18  74 CALM      30.42F
WASHINGTON +   CLOUDY    24  20  85 S3        30.41F

$$

INZ062-063-066-070>080-084-089>092-281200-
SOUTH CENTRAL AND SOUTHEAST INDIANA

CITY           SKY/WX    TMP DP  RH WIND       PRES   REMARKS
BLOOMINGTON    CLOUDY    21  18  88 CALM      30.38F
SEYMOUR +      CLOUDY    25  19  80 CALM      30.41

$$




USA.gov is the U.S. government's official web portal to all federal, state and local government web resources and services.